Showing default

KANYINI, 60556

Orbit data source: Space-Track

KANYINI, 60556 is an Australian payload satellite in SSO that was launched on Fri, 16 Aug 2024 UTC via an FALCON 9 launch vehicle from the Air Force Western Test Range (AFWTR). Payload-class satellites include a variety of spacecraft equipped with specific instruments for various scientific and technological missions. These include communications satellites like Starlink; space stations such as the ISS; scientific satellites like the Hubble; Earth observation satellites from companies like Planet Labs, Umbra, and HawkEye 360; GPS; miniature CubeSats for education and research; and military/defense satellites.

Loading next visibility...
Identifier
60556, 2024-149CS
Orbit
SSO
Country
Flag of AUAU / AUS
Related business
Manufacturer
INOVOR
Mission
Operational Amateur Communications
Bus & Motor
CUBESAT 6U, Unknown motor
Mass
12 kg wet, 12 kg dry
Launch date (UTC)
2024-08-16 (2 years ago)
Launch vehicle
FALCON 9
Launch site
Air Force Western Test Range (AFWTR)
Object type
Payload
Rocket body
Debris
Shape & HBR
Box + 2 Pan, 0.2 m
Radar Cross Section
0.092 m², Medium (>0.1 m² and < 1m²)

Expand to show TLE details & history
Last TLE update: 1 day ago

TLE from 1 day ago
0 KANYINI
1 60556U 24149CS  26174.20201247  .00033285  00000-0  53075-3 0  9994
2 60556  97.3721 261.2526 0002679 193.9683 166.1496 15.53164585103448
Epoch: 2026-06-23T04:50Z
TLE epoch observation values (Epoch: 2026-06-23T04:50:53.877Z)
Latitude
-0.00007°
Longitude
-82.84885°
Altitude
412.395 km
Speed
7.662 km/s
True Right ascension
17h 25m 00s
True Declination
0° 00' 00"
Sunlit
Object was in full shadow at epoch
Visualization orbit readout
Latitude
Unknown
Longitude
Unknown
Altitude
Unknown
Speed
Unknown
Apparent Right ascension
Unknown
Apparent Declination
Unknown
Sunlit
N/A
Visualization observer readout
Local Sidereal Time
16:56:34
Azimuth
Unknown
Elevation
Unknown
Doppler factor
Unknown
Orbital elements
Apogee altitude
406.231 km
Perigee altitude
402.596 km
Semi-major axis
6,782.551 km
Eccentricity
0.00027
Inclination
97.3721°
RAAN
261.2526°
Arg. of periapsis
193.9683°
True anomaly
166.15695°
Mean anomaly
166.1496°
Eccentric anomaly
166.15327°
Mean motion
3.88556 °/min
Orbital period
92.65 mins
BSTAR
0.00053075
Loading maneuver chart data...
Computing Atmospheric mass density...

Documentation

Showing up to 5 results
|